Rbgn^[z[y[W
メイン
   新天体発見情報
     Comet P/2016 J1-B = 2021 K5-B (PANSTARRS)
投稿するにはまず登録を

フラット表示 前のトピック | 次のトピック
投稿者 スレッド
佐藤裕久
投稿日時: 2024-3-25 21:29
モデレータ
登録日: 2005-6-12
居住地: 日本
投稿: 2661
オンライン
Comet P/2016 J1-B = 2021 K5-B (PANSTARRS)

HsiehとMicheliは、2021年5月29日、30日、31日。さらに2022年6月24日と7月7日、Mauna Keaの
8.1-m Gemini North望遠鏡でP/2016 J1-Bの検出した。また、2022年7月7日、チリ Cerro Pachon
にある8.1-m Gemini South望遠鏡から追加検出した。

検出位置は次のとおり、

     2021 UT             R.A. (2000) Decl.       Mag.   Observer
     May  29.28264   10 24 26.01   + 3 44 41.7   23.6   Hsieh
          29.28649   10 24 26.20   + 3 44 41.8   23.9     "
          29.29035   10 24 26.41   + 3 44 41.7   23.9     "
          30.33112   10 25 21.59   + 3 44 48.9   22.8     "
          31.32214   10 26 15.06   + 3 44 47.6   22.8     "

     2022 UT             R.A. (2000) Decl.       Mag.   Observer
     June 24.50698   19 02 06.27   + 0 30 33.9   24.4   Hsieh
     July  7.17327   18 52 39.69   + 0 35 23.6   23.8     "

MPCの連結軌道要素、位置推算表は次のとおり、

Orbital elements:
    P/2016 J1-B (PANSTARRS)                                                     
Epoch 2024 Mar. 31.0 TT = JDT 2460400.5                                         
T 2022 Feb. 22.80317 TT                                 Rudenko                 
q   2.4619662            (2000.0)            P               Q                  
n   0.17357914     Peri.   47.89168     -0.38744301     +0.91808473             
a   3.1827635      Node   199.79656     -0.90186248     -0.39628560             
e   0.2264690      Incl.   14.31080     -0.19113343     +0.00883994             
P   5.68                                                                        
From 66 observations 2016 Apr. 14-2022 July 7, mean residual 0".4.              
                                                                                
Ephemeris:
Date    TT    R. A. (2000) Decl.     Delta      r    Elong.  Phase   m1
2024 02 10    01 06 20.5 +04 33 55   4.1307  3.6821    56.7    12.9  25.7
...
2024 02 25    01 20 55.9 +05 43 36   4.3298  3.7021    45.4    11.0  25.9
...
2024 03 04    01 29 12.3 +06 22 57   4.4234  3.7123    39.5     9.8  25.9
...
2024 03 10    01 35 35.8 +06 53 03   4.4873  3.7199    35.2     8.9  26.0
2024 03 11    01 36 40.6 +06 58 06   4.4974  3.7211    34.5     8.7  26.0
2024 03 12    01 37 45.6 +07 03 09   4.5073  3.7224    33.8     8.5  26.0
...
2024 03 18    01 44 20.0 +07 33 33   4.5635  3.7297    29.5     7.6  26.0
...
2024 03 26    01 53 16.2 +08 13 57   4.6289  3.7393    23.9     6.2  26.1
...
2024 04 10    02 10 26.8 +09 28 05   4.7218  3.7566    13.8     3.6  26.1


中野主一氏(中央局)の連結軌道要素次のとおり、
from 76 observations spanning 2004-2022 (mean residual 0".5) non-gravitational 
parameters A1 = -5.98 ± 0.56 and A2 = -0.9406 ± 0.0217. (A1には不確かさがあるとのこと)

                    Epoch = 2005 Mar. 11.0 TT
     T = 2005 Mar. 15.74615 TT        Peri. =  45.57086
     e = 0.2359512                    Node  = 200.37484 2000.0
     q = 2.4154351 AU                 Incl. =  14.35742
       a =  3.1613623 AU   n = 0.17534471   P =   5.62 years

                    Epoch = 2010 Nov. 20.0 TT
     T = 2010 Nov.  1.01424 TT        Peri. =  45.85305
     e = 0.2348116                    Node  = 200.33128 2000.0
     q = 2.4196650 AU                 Incl. =  14.35451
       a =  3.1621822 AU   n = 0.17527652   P =   5.62 years

                    Epoch = 2016 June 21.0 TT
     T = 2016 June 24.11589 TT        Peri. =  46.57644
     e = 0.2282189                    Node  = 199.85585 2000.0
     q = 2.4480697 AU                 Incl. =  14.33130
       a =  3.1719740 AU   n = 0.17446553   P =   5.65 years

                    Epoch = 2022 Mar.  2.0 TT
     T = 2022 Feb. 20.47538 TT        Peri. =  46.98588
     e = 0.2276851                    Node  = 199.81101 2000.0
     q = 2.4497382 AU                 Incl. =  14.32988
       a =  3.1719421 AU   n = 0.17446816   P =   5.65 years

                    Epoch = 2027 Nov. 11.0 TT
     T = 2027 Nov. 14.44795 TT        Peri. =  50.41359
     e = 0.2208816                    Node  = 198.73330 2000.0
     q = 2.4838097 AU                 Incl. =  14.19849
       a =  3.1879745 AU   n = 0.17315371   P =   5.69 years

                    Epoch = 2033 July 22.0 TT
     T = 2033 July 28.73636 TT        Peri. =  50.90973
     e = 0.2211160                    Node  = 198.68597 2000.0
     q = 2.4824190 AU                 Incl. =  14.19799
       a =  3.1871485 AU   n = 0.17322103   P =   5.69 years

NK 3988の中野主一氏の予報に対し、Delta(T)は、-0.09 dayであった。
MPEC 2017-A77のG. V. Williamsの予報に対する修正値は、Delta T = +0.62 dayであった。
彗星年表2021,2022の佐藤裕久の参考軌道に対する修正値は、Delta(T) = -0.01 dayであった。

(MPEC 2024-E143、CBET 5367、oaa-comet :6469)

フラット表示 前のトピック | 次のトピック

題名 投稿者 日時
 » Comet P/2016 J1-B = 2021 K5-B (PANSTARRS) 佐藤裕久 2024-3-25 21:29

投稿するにはまず登録を
 
© 1999 Tsutomu Seki.